{"data":{"norad_id":66832,"epoch":"2026-05-25T03:00:33.166368Z","epoch_age_seconds":54283,"freshness":"FRESH","line1":"1 66832U 25280M   26145.12538387  .00001484  00000+0  13209-3 0  9991","line2":"2 66832  70.0007 141.7995 0003650 260.9623  99.1124 14.98337601 27523","mean_motion":14.98337601,"eccentricity":0.000365,"inclination_deg":70.0007,"raan_deg":141.7995,"arg_perigee_deg":260.9623,"mean_anomaly_deg":99.1124,"bstar":0.00013209,"rev_number":2752,"period_min":96.106511579162,"perigee_km":569.49557375256,"apogee_km":574.56919740403,"semimajor_km":6950.1693855783,"source":"CELESTRAK","updated_at":"2026-05-25T13:38:21.336004Z"}}